Weather in Slavyanskoe

Russia / Republic of Crimea     45°41′06″N   34°41′31″E
temp.,
°C
wind,
m/s
gust,
m/s
humid.,
%
clouds,
%
prec.,
mm/h
press.,
hPa
HPBL,
m
27 february, sat
sat2700:00+7wsw815880 0.0 1021327
03:00+7wsw815900 0.0 1020343
06:00+7wsw815900 0.0 1019332
09:00+7wsw813860 0.0 1019325
12:00+10w711730 0.0 1018316
15:00+10nw79730 0.0 1017537
18:00+6nnw569299 0.2 1016156
21:00+5nnw7119299 2.4 1018503
28 february, sun
sun2800:00+5nw6883100 1.6 1018404
03:00+5nnw7983100 1.6 1019451
06:00+3nw5795100 0.3 1019450
09:00+3nw6795100 0.8 1020505
12:00+4nw688195 0.1 1021749
15:00+4nw899096 0.3 1021595
18:00+4nw687885 0.1 1022792
21:00+4nw688480 0.2 1023474
1 march, mon
mon100:00+4nw4682100 0.1 1023570
03:00+3w3484100 0.1 1023353
06:00+2w3483100 0.1 1024272
09:00+3nw3480100 0.1 1025458
12:00+3n337365 0.1 1026529
15:00+3nne327150 0.1 1026506
18:00+3nne227318 0.0 1027202
21:00+3nw117439 0.0 1029200
2 march, tue
tue200:00+3n457475 0.1 1029518
03:00+4n456484 0.1 1030785
06:00+3n457269 0.0 1030443
09:00+2nw447366 0.0 1030421
12:00+4wnw566510 0.0 1029884
15:00+5wnw685911 0.0 10281068
18:00+5w7116784 0.0 1025787
21:00+4wsw8137769 0.0 1025564
3 march, wed
wed300:00+4wsw8118163 0.0 1025450
03:00+5wnw598881 0.1 1025322
06:00+3nnw578033 0.0 1025371
09:00+4wnw687917 0.0 1025380
12:00+6nw797728 0.0 1025625
15:00+7nw687036 0.0 1025658
18:00+6nnw697078 0.1 1026285
21:00+6n456685 0.1 1027104